Time,TemperatureF,DewpointF,PressureIn,WindDirection,WindDirectionDegrees,WindSpeedMPH,WindSpeedGustMPH,Humidity,HourlyPrecipIn,Conditions,Clouds,dailyrainin,SoftwareType,DateUTC
2013-02-02 00:01:00,31.0,23.0,-100.00,NE,56,1.0,4.0,73,-99.99,,,-99.99,,2013-02-02 08:01:00,
2013-02-02 00:11:00,30.0,22.0,-100.00,NE,37,1.0,3.0,72,-99.99,,,-99.99,,2013-02-02 08:11:00,
2013-02-02 00:21:00,30.0,22.0,-100.00,NE,37,1.0,3.0,72,-99.99,,,-99.99,,2013-02-02 08:21:00,
2013-02-02 00:31:00,30.0,22.0,-100.00,NE,37,1.0,3.0,72,-99.99,,,-99.99,,2013-02-02 08:31:00,
2013-02-02 00:41:00,30.0,22.0,-100.00,NE,37,1.0,3.0,72,-99.99,,,-99.99,,2013-02-02 08:41:00,
2013-02-02 00:53:00,30.0,23.0,-100.00,NE,41,2.0,5.0,76,-99.99,,,-99.99,,2013-02-02 08:53:00,
2013-02-02 01:01:00,30.0,23.0,-100.00,NE,41,2.0,5.0,76,-99.99,,,-99.99,,2013-02-02 09:01:00,
2013-02-02 01:11:00,29.0,23.0,-100.00,NE,35,1.0,3.0,75,-99.99,,,-99.99,,2013-02-02 09:11:00,
2013-02-02 01:22:00,29.0,23.0,-100.00,NE,35,1.0,3.0,75,-99.99,,,-99.99,,2013-02-02 09:22:00,
2013-02-02 01:31:00,29.0,23.0,-100.00,NE,35,1.0,3.0,75,-99.99,,,-99.99,,2013-02-02 09:31:00,
2013-02-02 01:41:00,29.0,23.0,-100.00,NE,35,1.0,3.0,75,-99.99,,,-99.99,,2013-02-02 09:41:00,
2013-02-02 01:52:00,28.0,22.0,-100.00,NNE,28,2.0,4.0,77,-99.99,,,-99.99,,2013-02-02 09:52:00,
2013-02-02 02:01:00,28.0,22.0,-100.00,NNE,28,2.0,4.0,77,-99.99,,,-99.99,,2013-02-02 10:01:00,
2013-02-02 02:11:00,29.0,23.0,-100.00,NNE,25,3.0,4.0,78,-99.99,,,-99.99,,2013-02-02 10:11:00,
2013-02-02 02:21:00,29.0,23.0,-100.00,NNE,25,3.0,4.0,78,-99.99,,,-99.99,,2013-02-02 10:21:00,
2013-02-02 02:31:00,29.0,23.0,-100.00,NNE,25,3.0,4.0,78,-99.99,,,-99.99,,2013-02-02 10:31:00,
2013-02-02 02:41:00,29.0,23.0,-100.00,NNE,25,3.0,4.0,78,-99.99,,,-99.99,,2013-02-02 10:41:00,
2013-02-02 02:52:00,28.0,23.0,-100.00,NE,35,2.0,3.0,81,-99.99,,,-99.99,,2013-02-02 10:52:00,
2013-02-02 03:01:00,28.0,23.0,-100.00,NE,35,2.0,3.0,81,-99.99,,,-99.99,,2013-02-02 11:01:00,
2013-02-02 03:11:00,28.0,23.0,-100.00,NE,35,2.0,4.0,82,-99.99,,,-99.99,,2013-02-02 11:11:00,
2013-02-02 03:21:00,28.0,23.0,-100.00,NE,35,2.0,4.0,82,-99.99,,,-99.99,,2013-02-02 11:21:00,
2013-02-02 03:31:00,28.0,23.0,-100.00,NE,35,2.0,4.0,82,-99.99,,,-99.99,,2013-02-02 11:31:00,
2013-02-02 03:41:00,28.0,23.0,-100.00,NE,35,2.0,4.0,82,-99.99,,,-99.99,,2013-02-02 11:41:00,
2013-02-02 04:11:00,27.0,23.0,-100.00,NE,34,2.0,4.0,85,-99.99,,,-99.99,,2013-02-02 12:11:00,
2013-02-02 04:22:00,27.0,23.0,-100.00,NE,34,2.0,4.0,85,-99.99,,,-99.99,,2013-02-02 12:22:00,
2013-02-02 04:32:00,27.0,23.0,-100.00,NE,44,2.0,3.0,84,-99.99,,,-99.99,,2013-02-02 12:32:00,
2013-02-02 04:42:00,27.0,23.0,-100.00,NE,44,2.0,3.0,84,-99.99,,,-99.99,,2013-02-02 12:42:00,
2013-02-02 04:52:00,27.0,23.0,-100.00,NE,44,2.0,3.0,84,-99.99,,,-99.99,,2013-02-02 12:52:00,
2013-02-02 05:02:00,27.0,23.0,-100.00,NE,44,2.0,3.0,84,-99.99,,,-99.99,,2013-02-02 13:02:00,
2013-02-02 05:11:00,27.0,23.0,-100.00,NE,37,4.0,7.0,83,-99.99,,,-99.99,,2013-02-02 13:11:00,
2013-02-02 05:21:00,27.0,23.0,-100.00,NE,37,4.0,7.0,83,-99.99,,,-99.99,,2013-02-02 13:21:00,
2013-02-02 05:32:00,27.0,22.0,-100.00,ENE,64,0.0,3.0,82,-99.99,,,-99.99,,2013-02-02 13:32:00,
2013-02-02 05:42:00,27.0,22.0,-100.00,ENE,64,0.0,3.0,82,-99.99,,,-99.99,,2013-02-02 13:42:00,
2013-02-02 05:52:00,27.0,22.0,-100.00,ENE,64,0.0,3.0,82,-99.99,,,-99.99,,2013-02-02 13:52:00,
2013-02-02 06:02:00,27.0,22.0,-100.00,ENE,64,0.0,3.0,82,-99.99,,,-99.99,,2013-02-02 14:02:00,
2013-02-02 06:11:00,27.0,22.0,-100.00,NE,37,2.0,4.0,84,-99.99,,,-99.99,,2013-02-02 14:11:00,
2013-02-02 06:22:00,27.0,22.0,-100.00,NE,37,2.0,4.0,84,-99.99,,,-99.99,,2013-02-02 14:22:00,
2013-02-02 06:32:00,27.0,22.0,-100.00,ENE,59,1.0,3.0,83,-99.99,,,-99.99,,2013-02-02 14:32:00,
2013-02-02 06:42:00,27.0,22.0,-100.00,ENE,59,1.0,3.0,83,-99.99,,,-99.99,,2013-02-02 14:42:00,
2013-02-02 06:52:00,27.0,22.0,-100.00,ENE,59,1.0,3.0,83,-99.99,,,-99.99,,2013-02-02 14:52:00,
2013-02-02 07:02:00,27.0,22.0,-100.00,ENE,59,1.0,3.0,83,-99.99,,,-99.99,,2013-02-02 15:02:00,
2013-02-02 07:12:00,27.0,22.0,-100.00,ENE,72,1.0,3.0,82,-99.99,,,-99.99,,2013-02-02 15:12:00,
2013-02-02 07:21:00,27.0,22.0,-100.00,ENE,72,1.0,3.0,82,-99.99,,,-99.99,,2013-02-02 15:21:00,
2013-02-02 07:32:00,27.0,22.0,-100.00,NE,40,2.0,5.0,81,-99.99,,,-99.99,,2013-02-02 15:32:00,
2013-02-02 07:42:00,27.0,22.0,-100.00,NE,40,2.0,5.0,81,-99.99,,,-99.99,,2013-02-02 15:42:00,
2013-02-02 07:52:00,27.0,22.0,-100.00,NE,40,2.0,5.0,81,-99.99,,,-99.99,,2013-02-02 15:52:00,
2013-02-02 08:02:00,27.0,22.0,-100.00,NE,40,2.0,5.0,81,-99.99,,,-99.99,,2013-02-02 16:02:00,
2013-02-02 08:11:00,28.0,22.0,-100.00,NNE,32,2.0,4.0,80,-99.99,,,-99.99,,2013-02-02 16:11:00,
2013-02-02 08:22:00,28.0,22.0,-100.00,NNE,32,2.0,4.0,80,-99.99,,,-99.99,,2013-02-02 16:22:00,
2013-02-02 08:31:00,28.0,23.0,-100.00,ENE,62,0.0,2.0,79,-99.99,,,-99.99,,2013-02-02 16:31:00,
2013-02-02 08:42:00,28.0,23.0,-100.00,ENE,62,0.0,2.0,79,-99.99,,,-99.99,,2013-02-02 16:42:00,
2013-02-02 08:52:00,29.0,23.0,-100.00,NNE,18,2.0,3.0,77,-99.99,,,-99.99,,2013-02-02 16:52:00,
2013-02-02 09:02:00,29.0,23.0,-100.00,NNE,18,2.0,3.0,77,-99.99,,,-99.99,,2013-02-02 17:02:00,
2013-02-02 09:11:00,30.0,23.0,-100.00,NNE,30,1.0,2.0,75,-99.99,,,-99.99,,2013-02-02 17:11:00,
2013-02-02 09:22:00,30.0,23.0,-100.00,NNE,30,1.0,2.0,75,-99.99,,,-99.99,,2013-02-02 17:22:00,
2013-02-02 09:32:00,32.0,25.0,-100.00,SSE,157,0.0,1.0,74,-99.99,,,-99.99,,2013-02-02 17:32:00,
2013-02-02 09:41:00,32.0,25.0,-100.00,SSE,157,0.0,1.0,74,-99.99,,,-99.99,,2013-02-02 17:41:00,
2013-02-02 09:52:00,32.0,25.0,-100.00,SSE,157,0.0,1.0,74,-99.99,,,-99.99,,2013-02-02 17:52:00,
2013-02-02 10:02:00,32.0,25.0,-100.00,SSE,157,0.0,1.0,74,-99.99,,,-99.99,,2013-02-02 18:02:00,
2013-02-02 10:12:00,34.0,25.0,-100.00,SW,236,1.0,3.0,68,-99.99,,,-99.99,,2013-02-02 18:12:00,
2013-02-02 10:22:00,34.0,25.0,-100.00,SW,236,1.0,3.0,68,-99.99,,,-99.99,,2013-02-02 18:22:00,
2013-02-02 10:31:00,36.0,23.0,-100.00,SW,232,1.0,3.0,60,-99.99,,,-99.99,,2013-02-02 18:31:00,
2013-02-02 10:41:00,36.0,23.0,-100.00,SW,232,1.0,3.0,60,-99.99,,,-99.99,,2013-02-02 18:41:00,
2013-02-02 10:52:00,36.0,23.0,-100.00,SW,232,1.0,3.0,60,-99.99,,,-99.99,,2013-02-02 18:52:00,
2013-02-02 11:01:00,36.0,23.0,-100.00,SW,232,1.0,3.0,60,-99.99,,,-99.99,,2013-02-02 19:01:00,
2013-02-02 11:11:00,37.0,24.0,-100.00,WSW,237,1.0,3.0,60,-99.99,,,-99.99,,2013-02-02 19:11:00,
2013-02-02 11:21:00,37.0,24.0,-100.00,WSW,237,1.0,3.0,60,-99.99,,,-99.99,,2013-02-02 19:21:00,
2013-02-02 11:32:00,37.0,24.0,-100.00,WSW,241,1.0,3.0,60,-99.99,,,-99.99,,2013-02-02 19:32:00,
2013-02-02 11:41:00,37.0,24.0,-100.00,WSW,241,1.0,3.0,60,-99.99,,,-99.99,,2013-02-02 19:41:00,
2013-02-02 11:52:00,37.0,25.0,-100.00,West,270,2.0,3.0,61,-99.99,,,-99.99,,2013-02-02 19:52:00,
2013-02-02 12:01:00,37.0,25.0,-100.00,West,270,2.0,3.0,61,-99.99,,,-99.99,,2013-02-02 20:01:00,
2013-02-02 12:11:00,38.0,23.0,-100.00,WSW,248,2.0,3.0,55,-99.99,,,-99.99,,2013-02-02 20:11:00,
2013-02-02 12:21:00,38.0,23.0,-100.00,WSW,248,2.0,3.0,55,-99.99,,,-99.99,,2013-02-02 20:21:00,
2013-02-02 12:32:00,38.0,23.0,-100.00,WSW,248,2.0,3.0,55,-99.99,,,-99.99,,2013-02-02 20:32:00,
2013-02-02 12:41:00,38.0,23.0,-100.00,WSW,248,2.0,3.0,55,-99.99,,,-99.99,,2013-02-02 20:41:00,
2013-02-02 13:52:00,39.0,26.0,-100.00,SSW,196,2.0,5.0,59,-99.99,,,-99.99,,2013-02-02 21:52:00,
2013-02-02 14:02:00,39.0,26.0,-100.00,SSW,196,2.0,5.0,59,-99.99,,,-99.99,,2013-02-02 22:02:00,
2013-02-02 14:11:00,39.0,26.0,-100.00,SSW,196,2.0,5.0,59,-99.99,,,-99.99,,2013-02-02 22:11:00,
2013-02-02 14:21:00,39.0,26.0,-100.00,SSW,196,2.0,5.0,59,-99.99,,,-99.99,,2013-02-02 22:21:00,
2013-02-02 14:32:00,40.0,24.0,-100.00,SSW,198,2.0,4.0,54,-99.99,,,-99.99,,2013-02-02 22:32:00,
2013-02-02 14:42:00,40.0,24.0,-100.00,SSW,198,2.0,4.0,54,-99.99,,,-99.99,,2013-02-02 22:42:00,
2013-02-02 14:52:00,41.0,27.0,-100.00,SW,230,1.0,3.0,56,-99.99,,,-99.99,,2013-02-02 22:52:00,
2013-02-02 15:01:00,41.0,27.0,-100.00,SW,230,1.0,3.0,56,-99.99,,,-99.99,,2013-02-02 23:01:00,
2013-02-02 15:11:00,41.0,27.0,-100.00,WSW,250,2.0,4.0,57,-99.99,,,-99.99,,2013-02-02 23:11:00,
2013-02-02 15:21:00,41.0,27.0,-100.00,WSW,250,2.0,4.0,57,-99.99,,,-99.99,,2013-02-02 23:21:00,
2013-02-02 15:32:00,41.0,27.0,-100.00,WSW,250,2.0,4.0,57,-99.99,,,-99.99,,2013-02-02 23:32:00,
2013-02-02 15:41:00,41.0,27.0,-100.00,WSW,250,2.0,4.0,57,-99.99,,,-99.99,,2013-02-02 23:41:00,
2013-02-02 15:52:00,41.0,29.0,-100.00,SW,236,2.0,3.0,60,-99.99,,,-99.99,,2013-02-02 23:52:00,
2013-02-02 16:01:00,41.0,29.0,-100.00,SW,236,2.0,3.0,60,-99.99,,,-99.99,,2013-02-03 00:01:00,
2013-02-02 16:11:00,41.0,29.0,-100.00,South,184,1.0,4.0,62,-99.99,,,-99.99,,2013-02-03 00:11:00,
2013-02-02 16:21:00,41.0,29.0,-100.00,South,184,1.0,4.0,62,-99.99,,,-99.99,,2013-02-03 00:21:00,
2013-02-02 16:31:00,40.0,27.0,-100.00,SSW,209,1.0,3.0,59,-99.99,,,-99.99,,2013-02-03 00:31:00,
2013-02-02 16:41:00,40.0,27.0,-100.00,SSW,209,1.0,3.0,59,-99.99,,,-99.99,,2013-02-03 00:41:00,
2013-02-02 16:52:00,40.0,28.0,-100.00,SSW,196,1.0,2.0,61,-99.99,,,-99.99,,2013-02-03 00:52:00,
2013-02-02 17:02:00,40.0,28.0,-100.00,SSW,196,1.0,2.0,61,-99.99,,,-99.99,,2013-02-03 01:02:00,
2013-02-02 17:11:00,39.0,29.0,-100.00,SW,215,0.0,2.0,66,-99.99,,,-99.99,,2013-02-03 01:11:00,
2013-02-02 17:21:00,39.0,29.0,-100.00,SW,215,0.0,2.0,66,-99.99,,,-99.99,,2013-02-03 01:21:00,
2013-02-02 17:32:00,39.0,29.0,-100.00,SW,215,0.0,2.0,66,-99.99,,,-99.99,,2013-02-03 01:32:00,
2013-02-02 17:41:00,39.0,29.0,-100.00,SW,215,0.0,2.0,66,-99.99,,,-99.99,,2013-02-03 01:41:00,
2013-02-02 17:52:00,38.0,29.0,-100.00,NE,52,1.0,3.0,69,-99.99,,,-99.99,,2013-02-03 01:52:00,
2013-02-02 18:01:00,38.0,29.0,-100.00,NE,52,1.0,3.0,69,-99.99,,,-99.99,,2013-02-03 02:01:00,
2013-02-02 18:11:00,37.0,29.0,-100.00,NNE,32,1.0,2.0,73,-99.99,,,-99.99,,2013-02-03 02:11:00,
2013-02-02 18:21:00,37.0,29.0,-100.00,NNE,32,1.0,2.0,73,-99.99,,,-99.99,,2013-02-03 02:21:00,
2013-02-02 18:31:00,36.0,29.0,-100.00,NE,51,1.0,2.0,75,-99.99,,,-99.99,,2013-02-03 02:31:00,
2013-02-02 18:41:00,36.0,29.0,-100.00,NE,51,1.0,2.0,75,-99.99,,,-99.99,,2013-02-03 02:41:00,
2013-02-02 18:52:00,35.0,29.0,-100.00,NE,44,2.0,4.0,78,-99.99,,,-99.99,,2013-02-03 02:52:00,
2013-02-02 19:01:00,35.0,29.0,-100.00,NE,44,2.0,4.0,78,-99.99,,,-99.99,,2013-02-03 03:01:00,
2013-02-02 19:11:00,34.0,28.0,-100.00,NNE,31,3.0,4.0,77,-99.99,,,-99.99,,2013-02-03 03:11:00,
2013-02-02 19:21:00,34.0,28.0,-100.00,NNE,31,3.0,4.0,77,-99.99,,,-99.99,,2013-02-03 03:21:00,
2013-02-02 19:31:00,34.0,28.0,-100.00,NNE,31,3.0,4.0,77,-99.99,,,-99.99,,2013-02-03 03:31:00,
2013-02-02 19:41:00,34.0,28.0,-100.00,NNE,31,3.0,4.0,77,-99.99,,,-99.99,,2013-02-03 03:41:00,
2013-02-02 19:52:00,34.0,27.0,-100.00,NE,37,1.0,2.0,76,-99.99,,,-99.99,,2013-02-03 03:52:00,
2013-02-02 20:01:00,34.0,27.0,-100.00,NE,37,1.0,2.0,76,-99.99,,,-99.99,,2013-02-03 04:01:00,
2013-02-02 20:11:00,33.0,26.0,-100.00,NE,45,2.0,3.0,75,-99.99,,,-99.99,,2013-02-03 04:11:00,
2013-02-02 20:21:00,33.0,26.0,-100.00,NE,45,2.0,3.0,75,-99.99,,,-99.99,,2013-02-03 04:21:00,
2013-02-02 20:31:00,33.0,26.0,-100.00,NE,37,1.0,3.0,74,-99.99,,,-99.99,,2013-02-03 04:31:00,
2013-02-02 20:42:00,33.0,26.0,-100.00,NE,37,1.0,3.0,74,-99.99,,,-99.99,,2013-02-03 04:42:00,
2013-02-02 20:52:00,32.0,25.0,-100.00,NNE,31,2.0,4.0,73,-99.99,,,-99.99,,2013-02-03 04:52:00,
2013-02-02 21:03:00,32.0,25.0,-100.00,NNE,31,2.0,4.0,73,-99.99,,,-99.99,,2013-02-03 05:03:00,
2013-02-02 21:11:00,32.0,25.0,-100.00,NE,44,1.0,3.0,75,-99.99,,,-99.99,,2013-02-03 05:11:00,
2013-02-02 21:22:00,31.0,24.0,-100.00,NE,41,2.0,3.0,75,-99.99,,,-99.99,,2013-02-03 05:22:00,
2013-02-02 21:32:00,31.0,24.0,-100.00,NE,34,2.0,3.0,76,-99.99,,,-99.99,,2013-02-03 05:32:00,
2013-02-02 21:41:00,31.0,24.0,-100.00,NNE,27,2.0,3.0,74,-99.99,,,-99.99,,2013-02-03 05:41:00,
2013-02-02 21:52:00,30.0,24.0,-100.00,NE,38,2.0,3.0,77,-99.99,,,-99.99,,2013-02-03 05:52:00,
2013-02-02 22:02:00,30.0,24.0,-100.00,NE,54,2.0,4.0,78,-99.99,,,-99.99,,2013-02-03 06:02:00,
2013-02-02 22:11:00,30.0,24.0,-100.00,NE,38,4.0,6.0,79,-99.99,,,-99.99,,2013-02-03 06:11:00,
2013-02-02 22:21:00,29.0,24.0,-100.00,NE,37,1.0,4.0,80,-99.99,,,-99.99,,2013-02-03 06:21:00,
2013-02-02 22:31:00,29.0,24.0,-100.00,ENE,72,0.0,3.0,81,-99.99,,,-99.99,,2013-02-03 06:31:00,
2013-02-02 22:41:00,29.0,24.0,-100.00,NNE,30,2.0,4.0,81,-99.99,,,-99.99,,2013-02-03 06:41:00,
2013-02-02 22:52:00,29.0,24.0,-100.00,NE,55,1.0,5.0,82,-99.99,,,-99.99,,2013-02-03 06:52:00,
2013-02-02 23:01:00,29.0,25.0,-100.00,NNE,30,2.0,5.0,83,-99.99,,,-99.99,,2013-02-03 07:01:00,
2013-02-02 23:11:00,29.0,24.0,-100.00,NE,42,2.0,3.0,82,-99.99,,,-99.99,,2013-02-03 07:11:00,
2013-02-02 23:21:00,28.0,24.0,-100.00,NNE,17,1.0,3.0,84,-99.99,,,-99.99,,2013-02-03 07:21:00,
2013-02-02 23:31:00,28.0,24.0,-100.00,NE,44,2.0,5.0,83,-99.99,,,-99.99,,2013-02-03 07:31:00,
2013-02-02 23:41:00,28.0,23.0,-100.00,NE,54,4.0,5.0,82,-99.99,,,-99.99,,2013-02-03 07:41:00,
2013-02-02 23:52:00,27.0,23.0,-100.00,NNE,24,2.0,5.0,82,-99.99,,,-99.99,,2013-02-03 07:52:00,